Theta_e
330 335 341 343 351 349 350 351 347 347 342 337 335 336 337 335 332 334 340 342 340 343 342 350 349 350 348 349 350 349 348 348 346 346 345 343 343 346 344 345 346 346 344 345 345 346 347 347 348
331 338 339 343 347 354 349 342 346 343 338 334 335 336 336 337 343 343 344 341 340 344 348 349 349 348 349 348 348 347 347 346 345 345 344 341 340 343 343 345 343 344 343 344 345 343 345 345 345
332 336 344 345 343 339 340 336 336 340 337 337 338 333 334 336 344 340 340 340 341 346 347 349 348 348 348 348 347 347 346 344 344 345 343 337 342 341 342 342 342 342 344 341 344 344 344 344 345
334 336 332 340 338 339 339 334 328 335 335 333 334 337 333 334 341 340 341 341 343 345 346 346 348 349 346 345 345 345 345 343 343 341 340 340 341 341 340 342 341 341 341 342 342 344 342 344 343
329 330 332 334 331 332 329 324 324 327 326 328 334 337 335 335 340 340 342 341 340 344 341 347 348 350 347 346 346 346 344 343 339 335 336 338 338 338 335 337 338 339 338 339 340 342 344 343 343
337 327 330 329 328 328 325 321 324 320 318 324 324 333 335 333 335 343 344 341 339 337 337 343 347 348 346 345 345 347 345 339 335 337 334 334 337 337 334 331 336 336 335 337 338 341 343 341 342
335 331 330 330 329 323 324 319 321 319 318 320 318 329 327 321 324 343 346 344 343 341 341 346 349 349 346 346 346 347 344 339 330 329 329 330 332 333 332 330 328 331 332 333 332 339 339 343 339
330 331 330 328 326 321 320 320 320 319 320 316 317 318 324 315 333 344 345 344 344 343 342 346 348 352 352 351 347 345 346 343 339 329 324 323 322 320 320 321 322 325 329 329 327 334 335 340 337
318 326 324 323 323 320 318 320 318 316 317 315 313 313 311 314 334 336 342 343 345 347 344 344 346 349 350 349 348 346 347 346 342 340 338 336 331 322 319 318 318 317 320 326 324 326 335 336 336
322 322 317 317 318 321 320 319 318 319 315 315 314 311 310 312 315 316 316 318 319 327 342 347 346 347 348 347 348 348 346 346 344 340 338 336 332 327 323 321 319 315 319 319 320 321 321 329 331
321 322 317 319 320 319 319 316 313 316 316 312 311 310 309 310 310 311 311 311 311 314 323 339 347 349 348 349 348 347 346 345 343 342 338 334 332 329 325 320 322 318 317 316 314 315 315 317 322
322 319 320 321 318 317 318 314 313 312 311 309 308 308 308 309 309 309 309 309 310 312 316 319 325 344 345 346 349 347 345 344 343 341 341 337 333 328 326 320 319 318 314 313 312 313 313 313 314
318 317 317 316 315 315 314 313 312 310 308 306 306 307 307 308 308 308 308 308 308 310 312 316 328 328 335 344 344 345 345 344 342 342 341 339 337 331 326 322 317 318 314 310 309 309 310 309 310
316 316 315 313 313 315 313 311 312 310 307 306 306 307 306 307 306 308 308 308 307 308 309 310 314 325 334 338 341 342 344 345 343 342 342 341 340 337 332 326 320 317 317 311 309 308 308 308 306
315 316 314 313 314 316 313 313 311 308 306 306 305 306 306 305 305 305 305 306 306 307 308 308 310 313 317 323 333 339 340 340 341 341 341 341 340 339 337 332 326 319 319 316 310 309 309 308 306
314 313 317 312 316 315 315 315 309 307 306 306 305 305 306 305 304 304 304 304 305 307 307 307 307 307 311 313 314 315 320 327 331 334 335 336 336 337 336 334 332 325 320 320 314 310 309 308 308
313 316 314 314 313 314 314 313 307 305 305 306 305 305 305 305 304 303 303 304 304 305 306 305 304 304 304 305 308 309 310 311 312 313 316 319 324 326 328 331 332 327 325 320 319 312 309 308 308
313 315 313 313 314 312 311 308 306 305 305 305 305 304 305 305 305 303 303 303 303 303 305 305 304 304 303 302 302 303 305 305 305 306 307 310 311 313 314 317 322 324 324 321 319 316 311 309 308
313 313 314 313 313 311 309 308 307 305 305 305 305 305 305 305 303 303 303 303 303 302 303 305 305 304 304 304 304 305 304 304 304 304 305 305 305 306 307 311 312 314 316 318 318 316 311 309 308
315 315 315 313 313 312 308 308 306 306 305 305 305 305 305 305 304 303 303 303 303 303 303 303 304 304 304 304 304 303 303 303 302 302 303 305 306 305 305 306 308 311 312 313 313 314 311 309 307
314 315 314 316 313 308 308 310 307 305 305 305 305 304 304 305 305 304 304 303 303 303 303 303 303 303 303 303 303 303 303 303 303 303 302 303 306 306 306 306 307 308 310 311 311 311 311 311 307
316 313 315 316 317 318 310 313 309 304 304 302 303 301 301 301 302 303 304 303 303 303 303 302 302 302 303 303 302 302 302 302 302 302 303 304 306 305 305 305 306 306 307 309 309 309 309 308 310
316 311 312 315 316 314 314 316 315 303 303 302 302 302 301 301 300 300 300 302 303 302 302 302 302 303 302 302 302 301 301 302 302 302 303 303 305 304 304 304 303 306 307 305 306 309 308 308 308
309 310 309 311 313 315 311 317 316 305 304 302 302 302 302 301 301 300 300 299 302 302 302 303 303 303 303 303 302 302 302 302 301 302 302 302 302 301 300 302 303 302 306 305 305 306 308 308 308
309 306 311 311 312 315 312 315 316 306 302 303 303 302 302 301 301 301 300 300 301 302 302 303 303 302 302 301 301 302 302 302 301 301 301 302 303 301 300 300 302 302 302 307 305 305 306 307 308
310 308 310 311 309 309 307 313 312 304 302 302 302 301 300 300 300 301 300 300 301 302 302 302 301 301 301 301 301 301 301 301 301 301 301 301 302 301 300 300 302 302 303 307 307 305 305 306 307
308 309 308 307 305 307 307 307 305 301 301 300 302 301 301 300 301 300 299 300 301 301 300 300 300 300 299 300 299 300 300 300 300 300 300 301 301 299 300 300 300 301 303 307 307 307 306 306 307
306 305 307 306 308 307 306 304 308 303 302 301 301 301 301 300 300 301 301 301 300 300 299 299 299 299 299 299 299 299 299 299 299 299 299 299 299 299 299 300 300 300 302 304 305 307 306 306 306
305 306 303 304 305 308 307 308 302 304 303 302 301 301 301 300 300 300 301 300 299 299 299 299 299 299 298 298 298 299 299 299 299 298 299 299 299 299 299 299 300 301 302 303 304 304 305 306 306
302 302 304 309 305 302 303 308 302 302 301 301 301 300 300 299 300 300 300 299 299 299 299 298 298 297 297 297 298 298 299 299 299 298 298 299 298 298 298 299 299 300 302 301 302 303 304 306 305
Wind_Speed
10 7 2 2 3 4 2 3 2 4 2 1 0 0 3 3 3 4 1 15 7 19 19 16 14 13 11 9 9 7 6 5 4 4 3 2 4 7 6 5 5 4 5 7 7 7 8 9 9
8 4 2 2 4 3 2 3 4 3 3 0 1 1 3 3 1 2 5 14 10 18 16 14 14 13 11 9 8 6 5 4 3 2 2 1 2 2 3 4 4 5 4 5 6 5 7 7 8
5 5 2 4 3 2 1 2 4 3 3 3 2 2 1 2 2 1 1 13 14 18 16 15 13 13 11 10 8 6 6 4 4 3 3 1 2 2 2 4 4 4 4 4 5 5 5 5 5
4 4 3 4 3 1 1 6 5 6 4 8 3 2 1 6 5 3 11 12 15 16 15 15 14 14 12 11 10 8 6 5 5 3 1 3 3 2 5 4 2 1 1 3 2 3 3 3 3
5 3 4 3 1 1 2 4 5 6 5 6 5 5 3 5 8 3 15 13 15 16 16 14 13 12 11 11 9 8 7 6 5 3 3 3 2 1 3 2 1 1 2 1 2 2 2 3 3
3 2 3 1 2 2 2 5 2 5 5 4 4 4 3 10 14 1 13 13 13 14 16 13 12 11 11 10 10 9 8 6 5 5 4 4 3 2 1 2 4 3 1 2 3 3 2 2 1
4 3 2 2 2 3 4 8 4 5 5 7 3 4 2 12 25 1 8 8 9 9 11 10 9 10 10 10 11 11 11 9 8 8 6 6 5 4 2 2 2 2 3 1 3 8 1 1 4
3 3 2 0 2 1 5 6 2 5 4 7 6 5 5 17 16 5 6 5 5 6 7 8 8 9 9 10 11 10 11 11 10 9 8 8 7 6 5 4 3 3 2 1 3 11 5 6 5
2 3 1 1 2 1 3 6 4 3 5 6 7 8 13 18 6 11 10 8 5 2 5 8 10 11 11 12 11 11 10 10 9 9 9 8 8 8 7 6 5 3 3 3 3 4 10 11 10
4 3 2 2 2 1 3 4 6 4 9 7 6 18 19 16 18 20 17 12 12 9 5 8 12 13 14 14 13 12 12 11 11 11 10 10 11 10 9 8 7 5 4 5 5 6 8 10 11
1 2 2 1 2 2 2 4 7 2 7 7 9 14 17 20 23 21 18 15 11 10 6 7 11 15 17 19 17 14 14 14 13 13 13 15 15 13 12 12 10 9 8 7 7 7 7 7 8
2 2 0 3 3 4 2 5 7 11 4 4 6 7 15 20 21 20 20 18 17 16 15 12 10 18 20 22 21 20 18 18 17 18 18 17 17 17 16 15 14 13 11 10 10 10 9 9 9
2 2 3 5 5 10 15 13 9 9 7 7 10 15 15 18 19 19 18 20 20 22 21 21 17 10 14 17 21 22 19 18 17 20 21 20 20 20 19 18 17 16 14 13 11 11 10 10 10
0 2 5 3 4 5 11 4 4 7 6 9 11 14 14 17 16 19 21 21 23 22 25 22 26 20 8 6 11 15 20 22 22 22 23 24 24 24 23 21 20 19 18 15 14 13 12 12 11
1 3 2 6 6 5 5 7 6 5 5 11 11 10 11 14 17 18 16 19 20 22 25 27 25 27 27 17 6 4 8 11 17 21 22 23 26 27 28 26 24 23 20 19 18 17 16 15 14
3 4 1 4 7 1 7 1 3 3 4 9 8 8 9 12 13 14 15 17 22 23 25 26 28 28 26 24 24 20 14 8 10 14 17 19 20 24 28 28 29 24 24 22 22 20 19 18 17
6 0 1 2 6 2 7 3 2 2 4 7 5 5 7 8 12 13 14 16 19 21 21 24 27 28 26 23 20 18 18 19 19 18 13 12 16 19 23 26 28 24 25 26 26 23 22 19 20
1 0 2 2 4 7 5 5 5 4 6 5 3 4 4 5 6 8 12 14 16 18 18 17 20 21 23 24 22 20 18 17 17 17 16 16 16 12 15 21 24 24 23 26 27 26 25 23 17
4 2 2 2 2 3 2 6 8 6 4 5 3 2 2 3 4 4 7 10 13 15 15 15 15 17 18 19 19 18 19 20 19 18 16 14 14 15 14 13 16 20 22 23 27 26 24 23 22
2 1 3 1 3 1 3 5 7 8 4 4 4 2 1 2 4 6 6 7 9 12 14 14 13 14 14 14 14 13 15 17 19 20 18 16 15 14 14 14 13 12 18 22 23 25 17 19 22
1 2 2 1 2 3 4 4 8 6 4 5 5 4 4 4 7 8 8 8 8 10 13 14 15 14 14 13 13 13 14 17 15 19 20 19 15 14 15 15 15 14 13 14 19 23 26 22 17
1 2 1 2 1 2 1 5 5 8 8 7 6 5 6 6 8 11 11 11 10 11 12 14 16 18 17 16 16 14 12 10 17 19 20 19 14 15 16 17 16 16 15 13 13 15 19 25 24
2 2 1 1 2 1 2 3 1 8 10 10 7 3 4 6 7 9 12 14 15 13 13 16 20 22 21 22 21 19 19 20 22 22 19 18 18 20 20 20 20 18 17 15 13 12 14 17 21
1 3 4 3 2 1 2 5 4 7 10 10 5 3 3 5 9 12 14 12 13 14 15 19 22 23 25 26 26 26 24 24 22 24 21 20 20 22 25 25 23 22 20 17 16 15 14 16 18
6 3 2 1 0 2 3 4 8 6 6 12 10 3 4 6 8 9 13 12 12 15 18 22 25 28 30 31 33 32 31 28 28 27 23 22 20 22 27 26 26 23 23 22 18 17 17 15 17
2 1 3 4 3 3 3 5 2 3 9 9 7 2 4 6 5 7 10 10 12 17 23 29 32 30 32 32 33 30 32 35 33 32 32 25 23 25 28 26 26 27 25 24 20 19 18 17 17
2 2 1 4 1 1 2 5 4 5 7 7 7 3 5 7 7 7 10 10 14 21 26 26 28 29 29 29 29 28 28 30 29 30 29 31 30 30 26 24 25 27 25 23 21 20 19 15 15
1 4 1 1 1 3 3 6 6 10 16 13 11 8 6 7 8 8 10 14 19 21 25 26 27 28 31 32 31 31 28 30 30 29 27 29 32 31 27 25 25 27 24 23 23 23 21 18 18
2 1 4 3 1 3 3 6 5 11 16 18 14 8 7 8 9 8 15 20 21 24 26 27 29 31 33 34 34 33 35 33 30 31 30 29 32 28 26 25 23 23 23 21 21 23 22 21 20
0 2 3 3 4 1 1 8 2 6 8 10 13 8 7 9 8 13 19 19 21 24 26 27 30 32 32 33 33 34 35 30 34 36 32 32 30 27 26 23 22 21 20 22 23 25 24 21 19
Wind_Direction
334 334 324 52 61 58 54 41 309 317 14 317 299 14 86 59 95 79 329 173 161 168 164 162 167 165 164 159 155 159 153 148 141 123 104 105 116 82 69 77 83 79 87 81 81 84 98 104 102
342 358 63 83 68 53 17 317 0 315 324 35 69 48 36 51 77 107 111 169 161 164 160 162 165 162 169 170 178 178 180 180 188 159 151 178 118 118 73 78 74 36 49 94 84 82 105 111 116
341 14 71 76 89 76 340 346 298 291 321 348 46 35 27 16 51 107 174 161 157 163 164 165 168 168 176 179 191 192 204 199 206 207 239 221 126 96 122 109 85 86 57 70 85 84 122 113 120
351 27 55 73 94 209 327 342 339 342 64 33 1 53 58 30 5 336 152 154 155 165 169 169 174 177 182 185 192 196 207 204 204 204 170 119 118 146 138 141 88 275 156 115 92 85 132 116 139
38 54 63 74 322 311 346 341 323 23 38 12 349 353 61 27 6 119 156 153 157 167 173 176 183 186 189 196 198 203 212 208 200 186 168 135 132 97 144 128 195 219 238 53 220 161 95 181 118
51 87 64 113 301 9 328 344 349 27 6 12 29 349 81 44 10 252 169 160 162 166 173 178 187 189 194 207 204 210 215 217 208 191 184 171 163 160 140 171 186 188 193 283 227 152 54 250 204
97 73 127 134 323 358 353 339 45 13 26 15 311 339 344 357 350 264 178 167 165 168 174 182 188 200 209 209 210 213 218 221 221 211 205 196 190 196 213 188 170 183 201 266 186 137 84 184 227
94 87 87 42 60 49 1 7 11 36 21 319 356 16 336 332 358 88 140 151 159 174 192 198 206 215 225 229 238 234 230 228 226 225 222 219 217 218 220 217 209 189 176 178 190 178 198 223 217
94 65 57 341 133 299 19 33 357 15 21 50 46 13 329 335 25 63 68 58 53 23 236 230 230 228 235 241 239 251 250 248 246 248 241 231 228 229 232 238 233 236 210 191 188 197 196 222 223
69 86 190 196 198 246 43 37 341 24 20 13 24 10 13 32 49 53 43 33 28 10 323 276 255 248 243 247 239 238 246 241 237 236 237 240 254 256 256 249 243 248 233 215 202 206 217 227 235
130 131 189 194 237 40 61 74 24 25 44 16 342 358 21 44 49 50 45 39 29 21 359 280 250 254 249 249 244 240 241 244 247 248 249 252 256 257 254 256 248 246 242 238 232 228 225 228 232
88 74 205 310 11 9 64 82 66 44 77 354 25 33 47 50 50 48 46 39 32 30 24 5 307 254 254 254 251 249 244 245 246 252 254 253 254 256 256 257 253 255 255 248 240 234 232 233 237
76 332 313 342 22 69 87 78 98 62 48 42 54 53 52 57 56 53 53 50 44 40 36 29 18 344 254 261 264 258 250 249 253 252 256 257 258 257 257 257 255 256 257 253 247 240 240 242 240
201 287 305 349 37 103 112 61 158 48 49 65 60 55 53 55 52 55 48 44 43 42 43 38 41 39 29 297 286 282 268 266 267 265 262 264 263 262 260 257 252 249 251 252 250 248 248 249 244
109 357 69 26 341 107 166 41 35 92 68 74 61 58 59 55 56 51 46 46 43 45 46 47 46 48 50 45 25 325 297 291 279 279 273 268 265 264 263 260 258 255 249 245 244 245 248 248 246
43 57 95 17 9 17 190 163 128 10 110 85 71 63 61 51 50 48 47 48 47 47 48 48 48 49 49 48 50 47 32 352 310 292 284 281 275 271 271 265 261 259 254 250 245 241 242 240 240
15 205 318 352 30 298 23 142 173 75 126 101 81 63 61 59 49 41 44 49 47 45 47 47 45 41 39 40 45 43 39 37 32 27 6 316 290 280 274 271 267 261 258 254 247 244 241 243 238
199 335 284 267 348 43 52 122 144 121 133 125 110 76 65 59 32 20 39 47 46 46 47 46 42 38 32 29 27 23 22 23 20 17 11 10 9 343 288 276 271 265 259 254 248 244 243 242 246
127 149 261 282 38 85 74 151 173 164 156 160 148 112 67 36 340 2 24 33 38 40 39 36 30 26 21 21 19 16 9 1 358 357 356 353 352 352 353 337 287 269 261 253 251 247 243 241 239
130 176 268 276 43 100 184 210 191 186 186 193 181 198 270 321 338 331 339 357 12 15 19 19 14 10 10 10 8 0 353 351 347 344 334 329 333 342 344 338 329 309 273 259 253 245 240 243 235
269 195 205 252 54 68 147 252 199 198 186 206 227 245 265 277 293 296 309 322 331 349 356 354 352 346 342 341 337 334 333 332 330 335 333 323 316 328 332 334 330 320 303 280 263 252 244 239 237
311 163 87 256 5 278 282 294 217 193 196 217 225 253 273 275 270 273 288 300 309 318 325 338 341 334 326 321 319 317 313 306 313 317 317 318 301 311 316 318 319 317 313 300 283 268 253 243 239
202 31 266 182 186 11 187 246 211 172 210 213 213 227 254 261 272 294 300 287 295 311 329 341 338 338 327 318 308 306 303 302 305 303 296 299 298 300 301 303 303 297 295 299 296 277 252 242 242
6 110 55 62 108 234 172 207 248 187 208 186 182 193 260 306 313 314 320 313 291 311 324 331 329 327 323 315 305 293 293 297 296 297 291 287 289 297 300 294 293 294 283 285 291 294 274 263 251
52 63 306 307 249 255 183 196 268 208 193 166 162 181 304 314 316 315 317 315 305 312 316 319 317 316 314 315 307 299 287 293 292 291 288 281 280 291 295 293 283 286 284 272 281 288 288 271 255
49 147 147 272 256 285 261 241 284 238 156 145 149 180 283 290 295 300 312 311 305 308 310 310 309 309 312 312 311 308 296 295 289 286 288 279 273 285 287 289 277 281 283 265 271 282 283 278 268
144 69 78 111 101 303 293 285 256 146 182 189 185 218 267 269 274 294 304 302 302 304 306 306 307 304 304 302 303 300 298 294 296 290 290 280 276 280 279 280 281 276 278 262 268 271 276 274 271
131 132 147 9 356 291 282 281 251 207 215 214 218 230 268 276 267 271 286 291 301 305 308 307 307 304 305 304 303 300 297 296 289 296 291 291 286 278 274 274 279 276 277 267 266 263 270 270 275
98 142 59 111 128 224 294 254 214 222 213 212 211 227 259 282 271 274 290 300 302 306 308 306 307 305 304 301 299 297 298 296 291 294 292 293 287 274 272 272 278 273 273 272 264 265 266 263 271
344 196 155 148 199 109 113 266 188 260 232 212 209 230 271 265 290 284 288 295 305 307 305 304 306 307 304 302 300 297 298 293 297 293 287 295 290 274 273 278 272 271 263 275 268 266 262 257 266